Current Version              Previous Version:    01  02  03  04  05  06  07  08  09  10  11  12  13  14  15  16  17  18  19  20  21  22  23  24  25  26  27  28  29  30  
   31  32  33  34  35  36  37  38  39  40  41  42  43  44  45  46  47  48  49  50  51  52  53  54  55  56  57  58  59  60  

[Printable]
255
ASUS44 KFWD 252110
RWRTX
NORTH TEXAS HOURLY WEATHER ROUNDUP
NATIONAL WEATHER SERVICE FORT WORTH TX
400 PM CDT SAT OCT 25 2014

NOTE: "FAIR" INDICATES FEW OR NO CLOUDS BELOW 12,000 FEET WITH NO
SIGNIFICANT WEATHER AND/OR OBSTRUCTIONS TO VISIBILITY.

TXZ118-119-252200-
DALLAS/FORT WORTH METROPLEX

CITY           SKY/WX    TMP DP  RH WIND       PRES   REMARKS
DFW AIRPORT    SUNNY     88  59  37 S7        30.06F
DALLAS LOVE    SUNNY     87  59  38 SW5       30.06F
FTW MEACHAM    SUNNY     88  59  37 S8        30.06F
DAL-EXECUTIVE  SUNNY     89  59  36 VRB3      30.07F
FTW-ALLIANCE   SUNNY     89  57  33 SW7       30.06F
FTW-NAS-JRB    SUNNY     92  58  31 S8        30.10F HX  91
FTW-SPINKS     SUNNY     90  57  33 SE5       30.08F
ARLINGTON      SUNNY     89  58  34 S6        30.07F
ADDISON        SUNNY     86  59  39 SE6       30.07F
MESQUITE       SUNNY     88  57  35 SW5       30.07F
LANCASTER      SUNNY     87  57  36 CALM      30.08S
$$

TXZ091>094-102>105-117-120-121-131>134-252200-
NORTH CENTRAL TEXAS

CITY           SKY/WX    TMP DP  RH WIND       PRES   REMARKS
SHRMAN/DENISON SUNNY     87  65  48 SW6       30.07F
GAINESVILLE    SUNNY     87  59  38 SW5       30.08S
BOWIE          SUNNY     88  55  32 S8        30.07S
BRIDGEPORT     SUNNY     90  58  34 SW3       30.07F
DECATUR        SUNNY     88  54  32 W3        30.07F
DENTON         SUNNY     88  61  40 S6        30.05F
MCKINNEY       SUNNY     86  60  41 VRB7      30.06F
GREENVILLE     SUNNY     88  55  33 SW6       30.07S
ROCKWALL       SUNNY     86  62  43 W7        30.06F
TERRELL        SUNNY     87  62  43 S5        30.08F
WAXAHACHIE     SUNNY     87  61  41 CALM      30.09S
CLEBURNE       SUNNY     88  59  37 S6        30.09F
GRANBURY       SUNNY     90  56  31 S9        30.07F
$$

TXZ083>090-098>101-113>116-127>130-139>142-154-155-252200-
WESTERN NORTH TEXAS

CITY           SKY/WX    TMP DP  RH WIND       PRES   REMARKS
WICHITA FALLS  SUNNY     91  54  28 SW9G16    30.04F
WF-KICKAPOO    SUNNY     91  49  23 SW9G16    30.06F
VERNON         SUNNY     93  48  21 S12       30.05F HX  90
ABILENE        SUNNY     88  50  27 SW10      30.10F
ABILENE-DYESS  SUNNY     89  47  23 S13G22    30.08F
BRECKENRIDGE   SUNNY     91  49  22 S12       30.06F HAZE
GRAHAM         SUNNY     91  56  30 SW6       30.04F HX  90
MINERAL WELLS  SUNNY     89  55  31 S9        30.05F
STEPHENVILLE   SUNNY     86  55  34 S5        30.12F
COMANCHE       MOSUNNY   88  57  35 S9        30.10F
BROWNWOOD      SUNNY     86  54  32 S7        30.09F
COLEMAN        SUNNY     89  55  31 S7        30.10F
BRADY          SUNNY     88  54  31 SW8       30.10F
$$

TXZ143>147-156>162-174-175-252200-
CENTRAL TEXAS

CITY           SKY/WX    TMP DP  RH WIND       PRES   REMARKS
WACO           SUNNY     86  60  41 S6        30.08F
WACO-TSTC      SUNNY     86  59  39 S6        30.08F
WACO-MCGREGOR  SUNNY     88  59  37 S7        30.09F
HILLSBORO      SUNNY     88  58  35 S8        30.08F
CORSICANA      SUNNY     87  60  40 MISG      30.09F
MEXIA          SUNNY     84  62  47 S5        30.09S
HEARNE         SUNNY     85  62  46 CALM      30.10S
CAMERON        SUNNY     87  61  41 S5        30.09F
TEMPLE         SUNNY     84  59  42 S7        30.09S
KILLEEN        SUNNY     86  56  36 S7        30.10F
KILLEEN-SKYLRK SUNNY     88  59  37 S7        30.08F
FORT HOOD      SUNNY     89  58  34 VRB5      30.09F
GATESVILLE     SUNNY     88  59  37 S3        30.11F
HAMILTON       SUNNY     88  53  30 SW8G16    30.11F
LAMPASAS       SUNNY     84  60  42 CALM      30.10F
$$

TXZ095>097-106>112-122>126-135>138-148>153-164>167-252200-
EAST TEXAS

CITY           SKY/WX    TMP DP  RH WIND       PRES   REMARKS
PARIS          SUNNY     86  61  42 SW6       30.07F
SULPHUR SPRNGS SUNNY     87  60  40 SW5       30.09S
MOUNT PLEASANT SUNNY     85  60  43 W6        30.08F
MINEOLA        SUNNY     86  61  42 S7        30.08F
TYLER          SUNNY     85  61  44 SW8       30.08F
LONGVIEW       SUNNY     84  62  47 W6        30.08F
MARSHALL       SUNNY     86  65  48 SW6       30.10F
ATHENS         MOSUNNY   82  61  47 W3        30.08F
PALESTINE      SUNNY     85  63  48 S5        30.10F
JACKSONVILLE   SUNNY     83  61  47 SW5       30.12F
HENDERSON      SUNNY     83  62  48 CALM      30.10F
NACOGDOCHES    SUNNY     82  63  51 W5        30.10F
LUFKIN         SUNNY     86  61  42 CALM      30.10F
$$

SUPPLEMENTAL OBSERVATIONS (CENTRAL)

CITY           SKY/WX    TMP DP  RH WIND       PRES   REMARKS
CADDO GRASSLND   N/A     90  63  40 S3          N/A  HX  90
PAT MAYSE LAKE   N/A    N/A N/A N/A S1          N/A
GREENVILLE       N/A     90  59  35 W8          N/A
CEDAR HILL       N/A     90  59  35 SW6         N/A
PALESTINE        N/A     86  63  45 S2          N/A
MCGREGOR         N/A     88  57  35 S7          N/A
TEMPLE           N/A     88  59  37 S6          N/A
$$

SUPPLEMENTAL OBSERVATIONS (WEST)

CITY           SKY/WX    TMP DP  RH WIND       PRES   REMARKS
MILLERS CREEK    N/A     90  57  33 S10         N/A
POSSUM KINGDOM   N/A     91  48  22 S8          N/A
LBJ GRASSLAND    N/A     91  57  31 S3          N/A  HX  90
GRANBURY         N/A     90  54  29 S9          N/A
HAMBY            N/A     90  48  24 S15         N/A
IVIE RESERVOIR   N/A     91  50  24 S8          N/A
COLORADO BEND    N/A     86  55  35 S7          N/A
$$

SUPPLEMENTAL OBSERVATIONS (EAST)

CITY           SKY/WX    TMP DP  RH WIND       PRES   REMARKS
CLARKSVILLE      N/A    N/A N/A N/A S6          N/A
TEXARKANA        N/A     86  63  45 SW5         N/A
LINDEN           N/A     86  63  45 W3          N/A
GILMER           N/A     86  63  45 SW6         N/A
HENDERSON        N/A     84  61  45 W5          N/A
LUFKIN           N/A     86  63  45 MISG        N/A
N SABINE NF      N/A     86  57  37 MISG        N/A
S SABINE NF      N/A     81  59  47 VRB6        N/A
$$

SUPPLEMENTAL OBSERVATIONS ARE A COLLECTION OF AUTOMATED INSTRUMENTS
THAT ARE MAINTAINED BY A VARIETY OF FEDERAL AND STATE AGENCIES.
CERTAIN ELEMENTS...SUCH AS HUMIDITY VALUES AND SUSTAINED WIND
SPEEDS...MAY BE APPROXIMATED.